カタログに戻る

HULIANWANG DIGUI-25

運用中通信PO
NORAD 63692·PAYLOAD·🇨🇳 China

打ち上げ Apr 28, 2025 から Wenchang Space Launch Site

Loading…

次のパス (今後24時間)

TLE

最新Source: Space-Track

元期: Sep 14, 2026, 14:16 UTC

1 63692U 25086F   26257.59474254  .00000016  00000-0  22463-5 0  9998
2 63692  86.4971 282.8948 0002003  83.0903 277.0459 13.24413598 66693

AllMySatでHULIANWANG DIGUI-25をリアルタイム追跡

Download on the App Store